User: anonymous   Login
Location: Unspecified
(0.0000°N, 0.0000°E)
Time: 00:04:06
(UTC+02:00)
Language:

Cosmos 1626 Rocket - Orbit

View from above orbital plane
View from above orbital plane
View from above satellite
View from above satellite

Ground track
Ground track

The orbit data is extracted from the following two-line orbital elements,

1 15495U 85009B   16147.88683253 +.00000091 +00000-0 +80233-5 0  9999
2 15495 082.5245 189.2871 0020704 160.4280 199.7735 14.83706225671599
Epoch (UTC): 26 May 2016 21:17:02
Eccentricity: 0.0020704
inclination: 82.5245°
perigee height: 603 km
apogee height: 632 km
right ascension of ascending node: 189.2871°
argument of perigee: 160.4280°
revolutions per day: 14.83706225
mean anomaly at epoch: 199.7735°
orbit number at epoch: 67159

The dashed part of the orbit path shows where the satellite is in the earth's shadow,  

DLR